Home > Weather > Görlitz > Past weeks

Flag for Germany Weather for the Past 2 Weeks in Görlitz, Saxony, Germany

Now
30 °F

Overcast.


Feels Like: 30 °F
Forecast: 30 / 44 °F
Wind: 2 mph from Southeast

Location: Liberec

Current Time: Feb 12, 2016 at 7:41:25 AM

Latest Report: Feb 12, 2016 at 7:00 AM


Visibility: 7 mi

Pressure: 29.74 "Hg

Humidity: 96%

Dew point: 29 °F

Location of GörlitzLocation

Historic Weather in Görlitz — Graph

°F

Görlitz Temperature Yesterday

Maximum temperature yesterday: 40 °F (at 2:00 PM)
Minimum temperature yesterday: 33 °F (at 10:00 PM)
Average temperature yesterday: 36 °F

High & Low Weather Summary for the Past Weeks

 TemperatureHumidityPressure
High51 °F (Feb 2, 1:00 PM)98% (Feb 1, 7:00 AM)30.37 "Hg (Feb 1, 7:00 AM)
Low29 °F (Feb 12, 5:00 AM)51% (Feb 8, 3:00 PM)29.18 "Hg (Feb 9, 10:00 PM)
Average39 °F76%29.90 "Hg
* Reported Jan 28 7:00 AM — Feb 12 5:00 AM, Görlitz, Weather by CustomWeather, © 2016

Note: Actual official high and low records may vary slightly from our data, if they occured in-between our weather recording intervals... More about our weather records

Advertising

Görlitz Weather History for the Previous 24 Hours

 ConditionsComfort  
Time TempWeatherWind HumidityBarometerVisibility
5:00 AM
Fri, Feb 12
29 °FChilly.1 mph95%29.74 "Hg7 mi
4:00 AM29 °FChilly.1 mph95%29.74 "Hg7 mi
2:00 AM30 °FChilly.1 mph92%29.74 "Hg7 mi
10:00 PM
Thu, Feb 11
33 °FChilly.1 mph93%29.72 "Hg6 mi
9:00 PM33 °FOvercast.2 mph92%29.71 "Hg9 mi
8:00 PM33 °FPassing clouds.3 mph93%29.71 "Hg9 mi
7:00 PM34 °FOvercast.1 mph85%29.71 "Hg12 mi
6:00 PM33 °FChilly.3 mph82%29.70 "Hg12 mi
5:00 PM34 °FRain showers. Cloudy.5 mph87%29.69 "Hg12 mi
4:00 PM35 °FSnow flurries. Overcast.5 mph73%29.68 "Hg3 mi
3:00 PM40 °FOvercast.7 mph55%29.65 "Hg16 mi
2:00 PM40 °FPartly sunny.6 mph55%29.63 "Hg25 mi
1:00 PM40 °FOvercast.5 mph66%29.63 "Hg22 mi
12:00 PM38 °FOvercast.6 mph67%29.63 "Hg22 mi
11:00 AM38 °FOvercast.7 mph69%29.63 "Hg22 mi
10:00 AM37 °FOvercast.7 mph74%29.62 "Hg17 mi
9:00 AM36 °FOvercast.6 mph81%29.61 "Hg16 mi
8:00 AM36 °FLight rain. Overcast.6 mph82%29.59 "Hg6 mi
7:00 AM36 °FOvercast.6 mph84%29.57 "Hg12 mi
Weather by CustomWeather, © 2016

See weather overviewHow to use our weather pages